Location: Coffee Ditch
(40.9640°N, 122.7500°W)
Time: 00:23:25
(UTC+00:00)

Cosmos 1602 Rocket - Pass Details

Date: 21 December 2025
Orbit: 596 x 626 km, 82.5° (Epoch: 16 January)

Event Time Altitude Azimuth Distance (km) Brightness Sun altitude
Rises 12:22:11 0° 161° (SSE) 2,896 7.2 -34.9°
Enters shadow 12:23:44 - 155° (SSE) 2,313 6.8 -34.6°
Exits shadow 12:33:34 - 23° (NNE) 2,459 6.8 -32.8°
Sets 12:34:43 0° 19° (NNE) 2,904 7.2 -32.6°
